GW2918 Weather Reports


time (UTC)temp
C
wind
direction
speed
KPH
gust
KPH
rain 1hr
cm
rain 24hr
cm
rain mn
cm
humidity
%
barometer
mb
20260903223116 24 64 3.2 3.2 0.00 0.53 0.53 98 1015.6
20260903222115 24 152 0.0 1.6 0.00 0.53 0.53 94 1015.2
20260903221115 24 284 1.6 1.6 0.00 0.53 0.53 94 1015.6
20260903220114 24 36 0.0 3.2 0.00 0.53 0.53 94 1015.4
20260903215114 24 164 1.6 4.8 0.00 0.53 0.53 93 1015.6
20260903214108 24 59 3.2 4.8 0.00 0.53 0.53 94 1015.3
20260903213105 23 352 1.6 4.8 0.05 0.53 0.53 96 1015.4
20260903212101 25 94 3.2 6.4 0.05 0.53 0.53 90 1015.2
20260903211059 25 80 3.2 8.0 0.00 0.51 0.51 88 1015.4
20260903210055 26 74 6.4 6.4 0.00 0.51 0.51 86 1015.3
20260903205055 27 278 4.8 6.4 0.00 0.51 0.51 82 1015.2
20260903204051 27 309 3.2 4.8 0.00 0.51 0.51 81 1015.2
20260903203047 27 221 3.2 16.1 0.00 0.51 0.51 81 1014.9
20260903202044 27 208 1.6 6.4 0.00 0.51 0.51 79 1015.6
20260903201044 27 218 3.2 8.0 0.00 0.51 0.51 80 1015.6
20260903200040 27 229 3.2 8.0 0.00 0.51 0.51 81 1015.7
20260903195037 27 217 3.2 9.7 0.00 0.51 0.51 80 1015.6
20260903194033 28 253 3.2 6.4 0.00 0.51 0.51 80 1015.6
20260903193031 26 261 3.2 4.8 0.00 0.51 0.51 82 1015.7
20260903192028 26 260 1.6 4.8 0.00 0.51 0.51 84 1015.9
20260903191024 27 277 3.2 8.0 0.00 0.51 0.51 77 1016.3
20260903190023 26 304 3.2 8.0 0.00 0.51 0.51 78 1015.9
20260903185020 28 205 3.2 9.7 0.00 0.51 0.51 78 1016.0
20260903184017 27 282 3.2 6.4 0.00 0.51 0.51 80 1016.5
20260903183017 27 229 4.8 8.0 0.00 0.51 0.51 82 1016.7
20260903182013 26 220 8.0 16.1 0.00 0.51 0.51 82 1016.5
20260903181011 26 265 1.6 8.0 0.00 0.51 0.51 83 1016.5
20260903180005 26 202 3.2 9.7 0.00 0.51 0.51 83 1016.7
20260903175004 25 277 3.2 9.7 0.00 0.51 0.51 82 1016.8
20260903173959 26 213 3.2 12.9 0.00 0.51 0.51 84 1016.9
20260903172956 25 220 6.4 9.7 0.00 0.51 0.51 83 1016.6
20260903171952 26 275 3.2 8.0 0.00 0.51 0.51 81 1016.8
20260903170948 25 227 12.9 14.5 0.00 0.51 0.51 84 1016.7
20260903165948 25 263 1.6 6.4 0.00 0.51 0.51 83 1017.1
20260903164942 25 204 8.0 8.0 0.00 0.51 0.51 83 1017.2
20260903163942 25 225 1.6 8.0 0.00 0.51 0.51 84 1017.0
20260903162941 25 205 11.3 11.3 0.00 0.51 0.51 82 1017.0
20260903161938 24 203 9.7 11.3 0.00 0.51 0.51 85 1017.3
20260903160935 24 201 11.3 11.3 0.00 0.51 0.51 83 1017.5
20260903155933 24 196 3.2 11.3 0.00 0.51 0.51 84 1017.4
20260903154929 23 216 6.4 14.5 0.00 0.51 0.51 88 1017.8
20260903153926 23 207 1.6 9.7 0.00 0.51 0.51 87 1017.8
20260903152924 23 215 6.4 11.3 0.00 0.51 0.51 87 1017.9
20260903151920 23 228 3.2 11.3 0.00 0.51 0.51 88 1017.7
20260903150915 22 203 4.8 9.7 0.00 0.51 0.51 89 1017.8
20260903145911 22 232 0.0 9.7 0.00 0.51 0.51 92 1017.7
20260903144912 22 184 3.2 9.7 0.00 0.51 0.51 91 1017.7
20260903143908 21 194 6.4 12.9 0.00 0.51 0.51 92 1017.7
20260903142905 21 247 8.0 9.7 0.00 0.51 0.51 95 1017.4
20260903141902 20 234 6.4 16.1 0.00 0.51 0.51 95 1017.7
20260903140859 20 256 4.8 19.3 0.00 0.51 0.51 97 1017.8
20260903135855 20 31 3.2 24.1 0.00 0.51 0.51 97 1017.7
20260903134855 19 255 3.2 16.1 0.00 0.51 0.51 99 1017.7
20260903133854 19 232 9.7 12.9 0.00 0.51 0.51 99 1017.9
20260903132851 18 203 17.7 17.7 0.00 0.51 0.51 99 1018.1
20260903131847 18 202 4.8 20.9 0.00 0.51 0.51 99 1017.9
20260903130846 18 219 4.8 16.1 0.00 0.51 0.51 99 1017.8
20260903125845 18 223 6.4 12.9 0.00 0.51 0.51 99 1017.7
20260903124845 18 201 6.4 19.3 0.00 0.51 0.51 99 1017.8
20260903123846 18 208 14.5 19.3 0.00 0.51 0.51 99 1017.9
20260903122845 18 233 8.0 14.5 0.00 0.51 0.51 99 1017.9
20260903121844 18 191 3.2 8.0 0.00 0.51 0.51 99 1017.6
20260903120841 18 218 4.8 12.9 0.00 0.51 0.51 99 1017.7
20260903115838 18 225 11.3 16.1 0.00 0.51 0.51 99 1017.6
20260903114833 18 212 6.4 14.5 0.00 0.51 0.51 99 1017.3
20260903113831 18 166 3.2 14.5 0.00 0.51 0.51 99 1017.1
20260903112828 17 148 0.0 14.5 0.00 0.51 0.51 99 1016.9
20260903111822 17 204 6.4 8.0 0.00 0.51 0.51 99 1017.0
20260903110819 18 171 1.6 8.0 0.00 0.51 0.51 99 1016.7
20260903105814 18 177 3.2 9.7 0.00 0.51 0.51 99 1016.5
20260903104815 18 157 3.2 14.5 0.00 0.51 0.51 99 1016.4
20260903103812 18 212 8.0 11.3 0.00 0.51 0.51 99 1016.3
20260903102809 18 206 3.2 9.7 0.05 0.51 0.51 99 1016.1
20260903101808 18 183 0.0 14.5 0.18 0.51 0.51 99 1016.6
20260903100805 18 194 9.7 25.7 0.18 0.48 0.48 99 1017.4
20260903095802 18 211 8.0 17.7 0.30 0.43 0.43 99 1017.8
20260903094758 18 190 4.8 17.7 0.18 0.38 0.38 99 1017.6
20260903093754 18 220 4.8 11.3 0.00 0.36 0.36 99 1018.1
20260903092749 18 203 6.4 25.7 0.00 0.36 0.36 99 1017.4
20260903091749 18 200 3.2 24.1 0.00 0.36 0.36 99 1017.6
20260903090745 18 209 12.9 19.3 0.00 0.36 0.36 99 1017.3
20260903085743 18 244 8.0 22.5 0.05 0.36 0.36 99 1017.4
20260903084742 18 142 1.6 12.9 0.00 0.33 0.33 99 1017.3
20260903083738 18 205 14.5 20.9 0.05 0.33 0.33 99 1017.0
20260903082737 18 211 14.5 27.4 0.00 0.33 0.33 99 1016.6
20260903081733 18 220 12.9 27.4 0.00 0.33 0.33 99 1016.6
20260903080731 18 208 0.0 22.5 0.00 0.33 0.33 99 1016.4
20260903075728 18 212 6.4 24.1 0.00 0.33 0.33 99 1016.6
20260903074727 18 221 12.9 22.5 0.05 0.33 0.33 99 1017.2
20260903073724 18 210 12.9 19.3 0.05 0.33 0.33 99 1017.7
20260903072720 18 206 3.2 9.7 0.05 0.30 0.30 99 1017.7
20260903071719 18 223 14.5 17.7 0.00 0.30 0.30 99 1017.5
20260903070714 18 187 3.2 17.7 0.00 0.30 0.30 99 1017.2
20260903065710 18 213 12.9 22.5 0.00 0.30 0.30 99 1017.1
20260903064709 18 217 16.1 27.4 0.00 0.30 0.30 99 1017.1
20260903063706 18 190 4.8 19.3 0.00 0.30 0.30 99 1017.0
20260903062703 18 207 4.8 12.9 0.00 0.30 0.30 99 1017.3
20260903061659 17 176 1.6 16.1 0.05 0.30 0.30 99 1017.3
20260903060659 17 186 6.4 20.9 0.30 0.28 0.28 99 1017.2
20260903055657 17 190 3.2 6.4 0.43 0.23 0.23 99 1017.9
20260903054656 17 214 6.4 8.0 0.18 0.15 0.15 99 1018.9
20260903053654 17 136 1.6 8.0 0.05 0.13 0.13 99 1019.7
20260903052651 17 213 4.8 4.8 0.48 0.13 0.13 99 1018.7
20260903051647 17 246 0.0 3.2 0.00 0.05 0.05 99 1019.0
20260903050643 17 208 4.8 6.4 0.00 0.05 0.05 99 1018.6
20260903045643 17 199 3.2 4.8 0.00 0.05 0.05 99 1019.0
20260903044641 17 199 3.2 4.8 0.05 0.05 0.05 99 1019.5
20260903043640 17 158 0.0 4.8 0.00 0.03 0.03 99 1019.2
20260903042638 17 145 4.8 6.4 0.05 0.03 0.03 99 1019.1
20260903041635 17 171 0.0 1.6 0.13 0.03 0.03 99 1020.1
20260903040630 17 228 0.0 4.8 0.00 0.00 0.00 99 1020.5
20260903035627 17 293 0.0 1.6 0.00 0.89 0.89 99 1020.5
20260903034624 17 203 6.4 8.0 0.00 0.89 0.89 99 1019.6
20260903033620 17 185 0.0 3.2 0.00 0.89 0.89 99 1019.5
20260903032615 17 142 0.0 8.0 0.00 0.89 0.89 99 1019.5
20260903031611 17 211 6.4 8.0 0.05 0.89 0.89 99 1020.5
20260903030608 17 193 3.2 20.9 0.13 0.89 0.89 99 1020.6
20260903025604 17 152 4.8 11.3 0.18 0.89 0.89 99 1020.9
20260903024600 17 152 4.8 11.3 0.18 0.89 0.89 99 1020.9
20260903023556 17 172 1.6 3.2 0.36 0.86 0.86 99 1021.3
20260903022556 17 107 4.8 11.3 0.71 0.79 0.79 99 1021.7
20260903021556 20 219 6.4 9.7 0.05 0.18 0.18 99 1021.1
20260903020552 20 231 19.3 22.5 0.00 0.18 0.18 99 1018.9
20260903015548 20 231 19.3 22.5 0.00 0.18 0.18 99 1018.9
20260903014548 20 189 3.2 25.7 0.00 0.18 0.18 99 1018.8
20260903013543 20 156 3.2 8.0 0.00 0.18 0.18 99 1019.2
20260903012543 20 164 3.2 9.7 0.00 0.18 0.18 99 1019.0
20260903011542 20 207 6.4 24.1 0.00 0.18 0.18 99 1018.8
20260903010538 21 152 4.8 8.0 0.00 0.18 0.18 99 1018.8
20260903005537 21 217 6.4 11.3 0.00 0.18 0.18 99 1019.1
20260903004532 21 211 14.5 14.5 0.00 0.18 0.18 99 1018.5
20260903003529 21 185 4.8 8.0 0.00 0.18 0.18 99 1017.7
20260903002524 21 196 3.2 9.7 0.00 0.18 0.18 99 1018.0
20260903001519 21 182 0.0 3.2 0.00 0.18 0.18 99 1018.5
20260903000514 21 225 1.6 9.7 0.00 0.18 0.18 99 1018.7
20260902235513 21 201 4.8 14.5 0.00 0.18 0.18 99 1018.5
20260902234509 21 143 4.8 8.0 0.00 0.18 0.18 98 1018.5
20260902233507 21 206 9.7 12.9 0.00 0.18 0.18 98 1018.9
20260902232507 21 196 3.2 8.0 0.00 0.18 0.18 98 1018.6
20260902231502 21 213 6.4 8.0 0.00 0.18 0.18 98 1018.5
20260902230457 21 166 3.2 9.7 0.00 0.18 0.18 97 1017.8
20260902225457 21 194 4.8 6.4 0.00 0.18 0.18 97 1018.0
20260902224456 22 201 9.7 17.7 0.00 0.18 0.18 96 1018.4